Flag for Cook Islands Weather past 2 weeks in Rarotonga, Cook Islands

Now
68 °F

Passing clouds.


Feels Like: 68 °F
Forecast: 65 / 75 °F
Wind: 12 mph from Northwest

Location: Rarotonga

Current Time: Jul 26, 2014 at 3:41:26 AM

Latest Report: Jul 26, 2014 at 3:00 AM


Visibility: N/A

Pressure: 29.80 "Hg

Humidity: 88%

Dew point: 64 °F

Location of RarotongaLocation

Historic Weather in Rarotonga — Graph

°F

Rarotonga temperature yesterday

Maximum temperature yesterday: 75 °F (at 11:00 AM)
Minimum temperature yesterday: 63 °F (at 7:00 AM)
Average temperature yesterday: 70 °F

Past Weeks' High & Low Weather Summary

 TemperatureHumidityPressure
High82 °F (Jul 20, 12:00 PM)100% (Jul 15, 5:00 PM)30.04 "Hg (Jul 15, 5:00 PM)
Low61 °F (Jul 12, 3:00 AM)53% (Jul 11, 12:00 PM)29.74 "Hg (Jul 11, 3:00 AM)
Average73 °F82%29.91 "Hg
* Reported Jul 11 3:00 AM — Jul 26 3:00 AM, Rarotonga, Weather by CustomWeather, © 2014

Note: Actual official high and low records may vary slightly from our data, if they occured in-between our weather recording intervals... More about our weather records

Advertising

Rarotonga weather history for previous 24 hours

 ConditionsComfort  
Time TempWeatherWind HumidityBarometerVisibility
3:00 AM
Jul 26
68 °FPassing clouds.12 mph88%29.80 "HgN/A
2:00 AM68 °FPassing clouds.9 mph88%29.83 "HgN/A
1:00 AM68 °FScattered showers. Partly cloudy.7 mph88%29.86 "Hg3 mi
12:00 AM68 °FSprinkles. Partly cloudy.7 mph88%29.86 "Hg3 mi
11:00 PM
Jul 25
70 °FSprinkles. Partly cloudy.7 mph88%29.83 "HgN/A
10:00 PM68 °FPartly cloudy.No wind78%29.86 "HgN/A
9:00 PM70 °FPartly cloudy.8 mph69%29.86 "HgN/A
8:00 PM70 °FPartly cloudy.8 mph69%29.83 "HgN/A
7:00 PM70 °FPartly cloudy.6 mph73%29.83 "HgN/A
6:00 PM72 °FBroken clouds.6 mph61%29.83 "HgN/A
5:00 PM73 °FPassing clouds.6 mph57%29.80 "HgN/A
4:00 PM73 °FPartly sunny.6 mph57%29.80 "HgN/A
3:00 PM73 °FPartly sunny.5 mph57%29.80 "HgN/A
2:00 PM75 °FPartly sunny.6 mph57%29.83 "HgN/A
1:00 PM75 °FPartly sunny.6 mph57%29.86 "HgN/A
12:00 PM75 °FPartly sunny.5 mph57%29.89 "HgN/A
11:00 AM75 °FBroken clouds.5 mph54%29.92 "HgN/A
10:00 AM73 °FScattered clouds.5 mph61%29.92 "HgN/A
9:00 AM72 °FPassing clouds.1 mph65%29.92 "HgN/A
8:00 AM64 °FScattered clouds.2 mph83%29.89 "HgN/A
7:00 AM63 °FScattered showers. Passing clouds.1 mph88%29.89 "HgN/A
6:00 AM66 °FPartly cloudy.2 mph83%29.86 "HgN/A
5:00 AM66 °FPassing clouds.1 mph83%29.86 "HgN/A
4:00 AM66 °FPartly cloudy.3 mph83%29.86 "HgN/A
3:00 AM66 °FPartly cloudy.3 mph83%29.86 "HgN/A
Weather by CustomWeather, © 2014

See weather overviewHow to use our weather pages